Flag for Germany Weather past 2 weeks in Kempten, Bavaria, Germany

Now
56 °F

Overcast.


Feels Like: 56 °F
Forecast: 45 / 71 °F
Wind: 2 mph from North

Location: Kempten

Current Time: May 31, 2015 at 1:09:04 AM

Latest Report: May 31, 2015 at 12:00 AM


Visibility: 19 mi

Pressure: 30.08 "Hg

Humidity: 73%

Dew point: 47 °F

Location of KemptenLocation

Historic Weather in Kempten — Graph

°F

Kempten temperature yesterday

Maximum temperature yesterday: 66 °F (at 5:00 PM)
Minimum temperature yesterday: 52 °F (at 6:00 AM)
Average temperature yesterday: 59 °F

Past Weeks' High & Low Weather Summary

 TemperatureHumidityPressure
High72 °F (May 29, 4:00 PM)99% (May 16, 7:00 AM)30.34 "Hg (May 16, 7:00 AM)
Low37 °F (May 28, 6:00 AM)23% (May 28, 4:00 PM)29.70 "Hg (May 18, 7:00 PM)
Average52 °F77%30.06 "Hg
* Reported May 16 1:00 AM — Midnight between May 30 and May 31, Kempten, Weather by CustomWeather, © 2015

Note: Actual official high and low records may vary slightly from our data, if they occured in-between our weather recording intervals... More about our weather records

Advertising

Kempten weather history for previous 24 hours

 ConditionsComfort  
Time TempWeatherWind HumidityBarometerVisibility
12:00 AM
Sun, May 31
56 °FOvercast.2 mph73%30.08 "Hg19 mi
10:00 PM
Sat, May 30
57 °FOvercast.1 mph75%30.05 "Hg19 mi
9:00 PM58 °FOvercast.1 mph70%30.03 "Hg22 mi
8:00 PM60 °FPartly sunny.3 mph58%30.01 "Hg28 mi
7:00 PM62 °FPassing clouds.5 mph51%29.98 "Hg28 mi
6:00 PM64 °FPassing clouds.5 mph50%29.96 "Hg22 mi
5:00 PM66 °FScattered clouds.6 mph53%29.94 "Hg22 mi
4:00 PM63 °FPassing clouds.6 mph51%29.96 "Hg22 mi
3:00 PM64 °FScattered clouds.6 mph51%29.95 "Hg14 mi
2:00 PM63 °FOvercast.6 mph54%29.96 "Hg17 mi
1:00 PM62 °FOvercast.5 mph56%29.96 "Hg19 mi
12:00 PM62 °FPartly sunny.6 mph53%29.96 "Hg12 mi
11:00 AM60 °FSunny.6 mph53%29.97 "Hg17 mi
10:00 AM59 °FOvercast.6 mph58%29.97 "Hg19 mi
9:00 AM57 °FPartly sunny.7 mph62%29.96 "Hg19 mi
8:00 AM57 °FPassing clouds.5 mph66%29.96 "Hg28 mi
7:00 AM54 °FPassing clouds.2 mph77%29.97 "Hg22 mi
6:00 AM52 °FOvercast.3 mph89%29.96 "Hg25 mi
4:00 AM53 °FOvercast.3 mph90%29.96 "Hg19 mi
3:00 AM55 °FLight rain. Overcast.1 mph83%29.94 "Hg14 mi
2:00 AM57 °FOvercast.3 mph73%29.90 "Hg28 mi
1:00 AM57 °FPassing clouds.3 mph73%29.90 "Hg25 mi
Weather by CustomWeather, © 2015

See weather overviewHow to use our weather pages